Weather History for Okmulgee, OK

Change the Weather History Date:

Thursday, February 21, 2013

  Actual Average (KMKO) Record (KMKO)
Temperature  
Mean Temperature 33 °F -  
Max Temperature 36 °F 52 °F 70 °F (2007)
Min Temperature 29 °F 33 °F 24 °F (2006)
Degree Days  
Heating Degree Days 32    
Moisture  
Dew Point 31 °F    
Average Humidity 93    
Maximum Humidity 99    
Minimum Humidity 76    
Precipitation  
Precipitation 0.47 in - - ()
Sea Level Pressure  
Sea Level Pressure 29.79 in    
Wind  
Wind Speed 11 mph (East)    
Max Wind Speed 20 mph    
Max Gust Speed 26 mph    
Visibility 6 miles    
Events Rain , Snow , Thunderstorm    
Averages and records for this station are not official NWS values.
T = Trace of Precipitation, MM = Missing Value Source: NWS Daily Summary

Daily Weather History Graph

Daily Weather History Graph

Search for Another Location

Airport:

Trip Planner

Search our weather history database for the weather conditions in past years. The results will help you decide how hot, cold, wet, or windy it might be!

Date:

Astronomy

Feb. 21, 2013 Rise Set
Actual Time 7:03 AM CST 6:11 PM CST
Civil Twilight 6:37 AM CST 6:37 PM CST
Nautical Twilight 6:07 AM CST 7:07 PM CST
Astronomical Twilight 5:38 AM CST 7:37 PM CST
Moon 2:32 PM CST (2/21) 4:03 AM CST (2/21)
Length of Visible Light 12h 00m
Length of Day
11h 08m
Waxing Gibbous, 84% of the Moon is Illuminated
Feb 21
Waxing Gibbous
Feb 25
Full
Mar 4
Last Quarter
Mar 11
New
Mar 19
First Quarter

Hourly Weather History & Observations

Time (CST) Temp. Windchill Dew Point Humidity Pressure Visibility Wind Dir Wind Speed Gust Speed Precip Events Conditions
12:15 AM 31.8 °F - 29.8 °F 92% - - North - - N/A   Unknown
12:35 AM - - - N/A% 29.97 in - North - - N/A   Overcast
12:55 AM - - - N/A% - 10.0 mi North - - N/A   Unknown
1:15 AM - - - N/A% 29.92 in - East 17.3 mph - N/A   Unknown
1:35 AM 31.5 °F - 28.9 °F 90% 29.91 in - North - - N/A   Unknown
1:55 AM - - - N/A% - 10.0 mi North - - N/A   Overcast
2:15 AM 31.6 °F - 28.6 °F 88% 29.89 in 10.0 mi North - - N/A   Overcast
2:35 AM - - - N/A% 29.86 in - North - - N/A   Unknown
3:15 AM - - - N/A% - - North - - N/A   Unknown
3:35 AM - - - N/A% 29.81 in - East 17.3 mph - N/A Thunderstorm Thunderstorm
3:55 AM 31.1 °F - 28.9 °F 92% 29.78 in 5.0 mi North - - 0.02 in Thunderstorm Overcast
4:15 AM 31.5 °F 22.9 °F 28.9 °F 90% 29.79 in 10.0 mi East 10.4 mph 20.7 mph N/A Thunderstorm Overcast
4:35 AM 31.5 °F 19.4 °F 29.3 °F 92% 29.76 in 7.0 mi ESE 19.6 mph 25.3 mph 0.04 in   Overcast
4:55 AM 31.5 °F 20.9 °F 29.3 °F 92% 29.75 in 10.0 mi ESE 15.0 mph 23.0 mph 0.04 in   Overcast
5:15 AM 31.5 °F 21.4 °F 29.3 °F 92% 29.73 in 10.0 mi East 13.8 mph - N/A   Overcast
5:35 AM 31.6 °F 20.7 °F 29.3 °F 91% 29.73 in 10.0 mi ESE 16.1 mph 26.5 mph N/A   Overcast
6:15 AM 31.6 °F 20.7 °F 29.7 °F 92% 29.72 in 10.0 mi East 16.1 mph 21.9 mph N/A   Overcast
6:35 AM 31.8 °F - 29.5 °F 91% 29.76 in 7.0 mi North - - N/A   Overcast
6:55 AM 32.0 °F 24.8 °F 30.0 °F 92% 29.79 in 4.0 mi NNE 8.1 mph - 0.02 in Snow , Thunderstorm Light Thunderstorms and Snow
7:15 AM 31.8 °F 23.9 °F 30.7 °F 96% 29.78 in 3.0 mi NNE 9.2 mph - 0.08 in Snow , Thunderstorm Light Thunderstorms and Snow
7:35 AM 31.8 °F 23.9 °F 30.9 °F 96% 29.79 in 2.5 mi North 9.2 mph - 0.11 in Thunderstorm Overcast
7:55 AM 31.8 °F 22.8 °F 30.9 °F 96% 29.78 in 2.5 mi NNE 11.5 mph - 0.13 in Rain Light Freezing Rain
8:15 AM 31.6 °F 22.6 °F 30.9 °F 97% 29.80 in 3.0 mi North 11.5 mph - N/A Thunderstorm Thunderstorm
8:35 AM 31.8 °F 20.6 °F 31.1 °F 97% 29.75 in 3.0 mi NE 17.3 mph 25.3 mph 0.01 in Thunderstorm Overcast
8:55 AM 32.0 °F 27.5 °F 31.1 °F 96% 29.82 in 1.0 mi North 4.6 mph - 0.12 in Thunderstorm Thunderstorm
9:15 AM 32.0 °F - 31.3 °F 97% 29.81 in 1.8 mi North - - 0.06 in Rain , Thunderstorm Light Thunderstorms and Rain
9:35 AM 32.0 °F 28.7 °F 31.1 °F 96% 29.82 in 1.2 mi ENE 3.5 mph - 0.12 in Thunderstorm Thunderstorm
9:55 AM 32.0 °F 25.6 °F 31.6 °F 99% 29.79 in 4.0 mi East 6.9 mph - 0.14 in Rain Light Rain
10:15 AM 32.0 °F 23.6 °F 31.6 °F 99% 29.78 in 7.0 mi East 10.4 mph - N/A Thunderstorm Overcast
10:35 AM 32.0 °F 24.2 °F 31.6 °F 99% 29.78 in 5.0 mi East 9.2 mph - N/A   Overcast
10:55 AM 32.0 °F 24.2 °F 31.6 °F 99% 29.76 in 5.0 mi East 9.2 mph - N/A   Overcast
11:15 AM 32.2 °F 23.8 °F 32.0 °F 99% 29.74 in 5.0 mi East 10.4 mph - N/A   Overcast
11:55 AM 33.1 °F 23.9 °F 32.0 °F 96% 29.72 in 10.0 mi East 12.7 mph - N/A   Overcast
12:15 PM 33.3 °F 24.1 °F 32.0 °F 95% 29.72 in 10.0 mi ESE 12.7 mph - N/A   Overcast
12:35 PM 33.1 °F 24.4 °F 32.0 °F 96% 29.71 in 7.0 mi ESE 11.5 mph - N/A   Overcast
12:55 PM 33.1 °F 24.9 °F 32.0 °F 96% 29.69 in 7.0 mi ESE 10.4 mph - N/A   Overcast
1:15 PM 33.1 °F 24.4 °F 32.0 °F 96% 29.68 in 7.0 mi ESE 11.5 mph - N/A   Overcast
1:35 PM 33.3 °F 25.7 °F 32.0 °F 95% 29.69 in 7.0 mi ESE 9.2 mph - N/A   Overcast
1:55 PM 33.4 °F 27.3 °F 32.4 °F 96% 29.69 in 7.0 mi SE 6.9 mph - N/A   Overcast
2:15 PM 33.8 °F 27.0 °F 32.5 °F 95% 29.69 in 7.0 mi SE 8.1 mph - N/A   Overcast
2:35 PM 33.8 °F 27.7 °F 32.7 °F 96% 29.69 in 5.0 mi SE 6.9 mph - N/A   Overcast
2:55 PM 33.8 °F 28.6 °F 32.9 °F 96% 29.69 in 5.0 mi SE 5.8 mph - N/A   Overcast
3:15 PM 34.2 °F 29.0 °F 33.6 °F 98% 29.69 in 4.0 mi SSE 5.8 mph - N/A   Overcast
3:35 PM 34.5 °F 26.7 °F 34.0 °F 98% 29.69 in 3.0 mi SSE 10.4 mph - N/A   Overcast
3:55 PM 34.5 °F 30.4 °F 34.0 °F 98% 29.71 in 2.5 mi SW 4.6 mph - N/A   Overcast
4:15 PM 34.7 °F - 34.2 °F 98% 29.71 in 2.5 mi Calm Calm - N/A   Overcast
4:35 PM 34.7 °F - 34.0 °F 97% 29.73 in 3.0 mi Calm Calm - N/A   Overcast
4:55 PM 34.9 °F - 34.3 °F 98% 29.75 in 3.0 mi Calm Calm - N/A   Overcast
5:15 PM 35.1 °F - 34.3 °F 97% 29.75 in 3.0 mi Calm Calm - N/A   Overcast
5:35 PM 35.1 °F - 34.3 °F 97% 29.76 in 3.0 mi Calm Calm - N/A   Overcast
5:55 PM 35.1 °F - 34.7 °F 99% 29.77 in 2.5 mi Calm Calm - N/A   Overcast
6:15 PM 35.4 °F - 34.7 °F 97% 29.78 in 3.0 mi Calm Calm - N/A   Overcast
6:35 PM 35.2 °F - 34.7 °F 98% 29.78 in 4.0 mi Calm Calm - N/A   Overcast
6:55 PM 35.6 °F - 34.9 °F 97% 29.80 in 5.0 mi Calm Calm - N/A   Overcast
7:15 PM 35.6 °F 32.8 °F 34.9 °F 97% 29.81 in 5.0 mi West 3.5 mph - N/A   Overcast
7:35 PM 35.8 °F - 34.7 °F 96% 29.81 in 7.0 mi North - - N/A   Overcast
7:55 PM 36.5 °F - 34.7 °F 93% 29.82 in 10.0 mi North - - N/A   Overcast
8:15 PM 36.7 °F - 33.1 °F 87% 29.84 in 10.0 mi North - - N/A   Overcast
8:35 PM 36.1 °F 28.7 °F 32.0 °F 85% 29.85 in 10.0 mi West 10.4 mph - N/A   Overcast
9:15 PM 36.0 °F 29.6 °F 32.0 °F 86% 29.87 in 10.0 mi West 8.1 mph - N/A   Overcast
9:35 PM 35.6 °F 27.1 °F 31.1 °F 84% 29.89 in 10.0 mi West 12.7 mph 21.9 mph N/A   Overcast
9:55 PM 34.5 °F 26.2 °F 30.7 °F 86% 29.91 in 10.0 mi WNW 11.5 mph 18.4 mph N/A   Overcast
10:15 PM 32.9 °F 24.7 °F 29.8 °F 88% 29.92 in 10.0 mi West 10.4 mph 17.3 mph N/A   Overcast
10:35 PM 32.0 °F - 27.1 °F 82% 29.93 in 10.0 mi North - - N/A   Overcast
10:55 PM 31.5 °F 22.3 °F 25.0 °F 77% 29.94 in 10.0 mi WNW 11.5 mph 17.3 mph N/A   Mostly Cloudy
11:15 PM 30.7 °F 20.4 °F 24.4 °F 77% 29.96 in 10.0 mi WNW 13.8 mph - N/A   Overcast
11:35 PM 30.6 °F 21.8 °F 24.1 °F 77% 29.96 in 10.0 mi West 10.4 mph 20.7 mph N/A   Overcast
11:55 PM 29.7 °F 20.7 °F 22.8 °F 76% 29.97 in 10.0 mi West 10.4 mph - N/A   Overcast